Theta_e
334 333 331 333 333 334 334 334 334 334 334 335 335 333 332 329 325 323 324 326 325 326 327 329 329 326 323 325 327 326 326 325 324 324 325 333 333 336 333 335 341 337 336
330 330 330 332 333 334 334 333 332 331 332 332 331 329 327 325 325 324 322 322 327 327 329 327 326 325 323 321 320 320 322 322 321 322 324 332 333 335 335 335 336 336 336
326 329 329 331 334 334 333 331 330 329 329 328 334 329 328 327 326 323 322 322 325 322 324 324 323 320 320 322 323 323 323 323 323 322 324 336 331 330 333 334 333 333 332
318 330 328 329 331 332 332 333 331 328 327 327 328 325 324 325 324 323 324 322 323 321 323 320 319 321 321 321 321 321 320 320 321 323 328 331 334 326 332 328 330 330 326
318 325 328 329 330 330 332 331 330 329 327 326 329 327 334 332 327 323 320 322 322 321 322 320 319 318 316 314 314 315 317 320 321 322 324 324 333 332 327 325 321 324 324
320 319 323 325 329 330 330 329 327 326 326 326 331 331 331 331 326 320 316 316 318 318 318 317 314 313 312 310 309 309 310 312 313 314 318 321 330 328 322 325 326 325 326
321 318 319 319 322 324 325 326 325 327 326 328 333 331 329 327 316 316 315 314 314 315 315 313 311 306 304 304 304 304 304 304 304 305 309 318 316 316 319 322 324 324 325
322 321 319 317 316 316 315 316 318 326 325 329 334 331 327 324 313 313 313 312 312 312 310 306 304 303 303 304 304 304 304 304 304 304 303 304 305 307 313 316 319 321 322
320 320 321 319 317 315 315 314 315 319 322 329 332 329 326 317 312 312 311 310 308 306 304 304 304 304 304 306 306 307 306 306 306 305 304 305 304 304 304 307 311 314 317
317 318 320 320 320 319 316 314 319 322 324 328 330 327 324 316 311 310 308 306 304 304 303 303 303 305 306 306 307 307 306 306 306 306 306 305 305 305 304 304 304 305 309
317 317 318 319 321 320 319 315 318 325 325 326 326 324 320 314 311 309 306 304 304 304 303 303 304 305 306 306 306 306 306 307 306 306 306 306 305 304 304 303 303 303 304
316 316 317 318 318 320 324 325 316 319 324 324 324 322 318 315 311 309 305 304 304 304 303 304 305 305 305 306 306 306 306 306 306 306 306 306 305 305 304 303 302 302 302
322 320 316 317 318 319 319 321 320 315 317 321 323 323 318 316 312 309 304 304 304 303 303 304 304 305 305 305 305 305 305 305 305 305 305 305 305 304 304 303 303 302 302
319 322 319 316 317 317 318 319 319 319 316 317 320 323 318 317 312 309 305 304 304 304 304 304 304 305 305 305 305 306 306 305 305 305 305 304 304 303 302 302 302 302 302
315 316 317 316 316 316 317 318 318 319 319 318 319 319 316 314 311 309 305 304 305 305 304 305 304 304 305 305 305 305 306 305 305 304 304 304 303 303 301 301 302 304 309
315 315 316 315 315 315 316 317 317 317 319 319 319 317 315 314 312 309 307 304 304 305 304 304 304 304 304 304 304 305 305 304 304 303 303 303 303 302 301 301 303 307 312
315 314 315 315 315 315 315 315 316 317 318 319 318 317 315 314 313 311 308 305 303 304 304 303 303 303 303 303 304 304 303 303 303 303 302 302 301 301 300 305 314 314 313
314 315 314 313 313 314 314 315 315 316 318 319 319 318 316 315 314 312 308 306 303 303 304 303 303 303 302 302 303 303 303 303 303 302 302 301 301 300 300 300 302 304 307
313 313 313 312 312 312 313 315 316 317 318 318 319 320 318 316 315 314 310 307 304 303 303 303 302 302 302 302 302 302 302 302 302 302 301 301 300 299 299 298 299 300 300
310 311 311 311 311 311 311 313 316 317 318 320 319 319 318 317 315 315 312 308 305 302 302 302 302 301 301 301 301 301 301 301 301 301 301 300 299 298 297 297 296 296 296
309 310 310 310 310 310 311 312 313 316 317 318 318 318 318 317 316 315 314 310 307 304 301 301 301 300 300 300 300 300 300 300 300 301 300 299 298 297 296 296 295 295 295
309 309 310 309 308 308 308 311 313 315 316 317 317 316 316 316 315 315 314 313 310 306 302 300 300 300 299 300 300 300 299 298 299 299 299 299 298 297 296 295 295 294 293
309 308 307 307 307 306 306 308 309 310 311 312 312 312 314 313 313 314 314 314 312 309 306 302 300 299 300 300 299 300 301 301 300 298 298 297 297 296 296 295 294 293 292
305 306 306 307 306 306 306 306 306 308 307 308 307 308 309 309 310 311 312 313 314 312 307 304 301 299 299 299 298 300 301 302 301 298 296 295 295 294 295 295 294 294 292
305 305 305 306 307 307 305 304 304 304 304 305 305 305 304 304 305 306 308 310 310 311 311 308 304 300 299 298 298 299 299 300 301 301 298 297 295 295 295 294 294 293 292
303 303 303 304 304 304 304 304 302 302 302 303 303 302 302 303 303 303 303 305 307 308 309 308 306 302 300 299 298 297 298 299 300 300 300 299 299 298 297 296 294 293 292
Wind_Speed
15 16 21 23 22 20 18 17 14 12 11 11 9 7 7 5 4 3 4 4 4 4 4 4 4 4 3 2 2 0 1 2 3 4 4 4 4 5 6 7 9 7 8
15 18 20 21 22 21 19 17 15 13 11 9 9 9 8 6 5 5 5 4 4 4 3 4 5 2 2 0 1 1 1 0 1 2 3 3 2 2 2 2 3 4 4
13 20 19 20 21 20 19 17 15 13 11 10 9 8 8 8 8 8 8 8 7 7 4 3 3 3 3 2 1 1 1 1 1 1 3 2 2 2 2 1 2 1 2
12 20 21 21 20 21 19 17 16 15 13 12 11 11 10 10 10 10 10 10 10 9 5 6 5 5 4 4 3 3 2 2 2 2 2 3 2 2 3 3 4 4 4
11 20 21 23 22 21 20 19 18 17 16 14 13 12 10 10 12 10 10 12 12 9 8 8 8 7 7 7 6 7 6 5 5 4 4 3 4 5 3 5 5 5 5
13 18 21 22 23 22 21 20 19 19 17 15 15 14 14 14 14 11 9 10 11 10 9 9 9 8 8 7 7 7 7 8 8 8 6 3 7 9 6 4 5 6 6
14 18 21 20 23 23 23 22 21 20 19 17 18 17 17 16 14 11 11 10 10 10 10 9 7 7 6 4 4 3 4 5 7 7 8 7 13 9 9 8 8 8 7
14 17 20 21 23 24 23 23 23 22 21 20 20 18 16 16 15 10 11 10 10 9 9 9 6 4 3 3 3 2 3 4 4 5 6 11 10 9 10 9 10 10 10
14 17 20 21 23 24 24 24 24 24 23 24 25 21 18 18 16 12 11 11 11 10 9 8 6 5 4 3 3 3 3 4 4 5 6 9 8 9 9 10 12 12 12
15 18 20 22 24 25 26 26 25 24 25 27 26 22 21 20 16 14 13 13 12 12 10 9 8 6 5 4 4 5 5 5 5 6 8 7 8 9 9 9 11 13 13
18 20 21 23 24 25 26 28 28 27 27 28 27 26 25 21 19 18 16 16 15 13 12 10 9 7 6 6 5 5 6 7 7 7 8 8 8 9 9 9 10 11 12
21 22 23 24 25 25 25 25 30 31 31 31 31 30 28 24 22 20 19 18 17 16 14 13 11 10 9 7 6 6 6 7 7 8 8 9 9 10 10 10 10 11 12
20 22 25 26 27 28 29 30 31 33 35 35 34 33 32 27 26 23 22 22 21 19 18 16 14 13 10 9 7 6 6 7 7 8 8 9 9 9 10 11 11 12 12
19 22 25 27 30 30 31 33 33 32 35 37 36 34 33 32 30 27 26 25 24 22 21 19 17 14 12 10 9 7 7 7 8 8 8 9 9 9 9 9 10 10 11
22 25 27 28 30 32 34 35 34 35 36 35 36 38 35 33 33 30 29 28 26 24 24 21 19 17 15 12 10 9 8 7 7 8 9 9 9 10 9 8 7 7 3
24 24 24 28 28 31 35 36 37 37 38 37 38 38 36 34 35 34 32 31 29 28 26 24 21 20 18 15 13 11 9 8 8 8 8 8 9 9 9 7 5 2 6
26 26 25 24 26 30 32 36 38 39 39 40 40 40 40 37 38 36 35 35 32 30 29 27 25 23 21 18 15 12 10 9 8 8 8 8 8 9 10 8 11 11 7
20 21 25 29 31 33 33 35 38 40 41 40 41 41 42 39 40 39 38 37 35 34 32 30 28 26 23 21 17 15 13 11 10 10 9 10 10 9 10 10 11 13 10
15 15 18 22 26 31 35 36 37 38 41 42 41 41 42 42 41 42 41 39 38 36 35 34 32 29 27 23 21 18 16 14 12 11 11 12 11 12 12 11 11 11 12
8 10 12 15 19 23 26 31 35 35 37 37 38 40 40 41 41 42 42 41 40 38 37 36 34 32 29 26 23 20 17 15 13 13 13 13 13 13 14 14 14 13 12
8 5 6 10 12 17 19 23 27 31 34 34 35 33 36 40 41 42 45 44 43 41 39 38 37 34 31 29 25 20 19 18 17 17 17 17 16 16 15 15 15 15 13
20 16 11 7 5 10 13 16 16 14 19 21 26 31 33 38 41 42 45 46 46 43 41 41 39 38 35 34 29 20 12 17 20 20 20 19 18 18 18 17 16 15 13
24 24 23 19 11 2 6 9 12 16 19 15 19 25 31 35 39 42 44 46 47 46 46 45 44 43 41 39 34 19 9 10 17 21 23 21 20 19 19 18 17 16 16
24 23 25 23 20 16 8 3 6 8 10 9 12 18 24 28 33 38 42 44 49 49 49 48 46 46 44 44 39 38 29 14 11 10 20 22 21 22 21 21 20 19 20
23 23 22 21 21 20 16 10 7 6 8 9 11 17 20 21 22 25 35 40 47 51 51 51 50 49 48 46 44 43 40 28 19 10 12 21 25 26 26 25 24 21 21
20 23 25 25 26 23 18 15 12 9 7 7 11 14 16 18 20 20 24 34 42 49 51 52 51 51 51 49 47 44 44 43 39 28 18 17 23 25 30 29 29 26 24
Wind_Direction
199 199 189 187 188 188 195 200 204 207 202 196 193 196 204 201 191 193 183 191 212 219 234 254 281 318 320 3 69 109 28 49 48 57 76 89 78 76 88 96 96 86 79
196 205 196 193 194 194 195 201 207 212 211 210 197 201 212 216 219 221 234 255 254 257 266 273 275 277 306 14 85 71 215 106 52 71 86 59 51 55 71 81 71 83 74
197 202 202 201 198 198 199 201 205 207 209 213 202 205 209 218 229 239 243 243 248 265 289 276 276 294 304 286 206 174 207 167 155 134 114 125 4 334 317 319 329 4 35
202 200 205 206 205 202 203 204 206 210 212 213 217 230 237 238 244 245 237 242 245 258 271 269 270 275 275 282 288 267 241 241 215 176 123 122 56 288 293 283 287 300 311
206 200 209 209 209 210 208 209 212 216 221 223 228 230 226 236 241 244 252 240 246 256 257 269 268 269 274 273 268 266 267 259 251 229 223 206 120 279 247 281 277 285 288
213 206 215 218 217 217 216 216 218 220 223 225 228 231 236 245 255 249 245 243 250 260 261 265 272 279 274 271 269 263 255 253 249 250 247 213 206 246 261 263 273 275 282
219 212 218 219 221 224 226 224 222 220 221 221 228 236 242 251 260 251 249 249 251 256 262 265 266 266 266 264 258 253 245 241 246 247 240 215 245 253 252 250 253 263 270
226 225 222 219 220 225 228 229 223 222 222 222 228 234 244 257 262 244 243 245 246 252 262 267 260 241 229 230 236 240 239 239 242 245 245 248 265 264 260 264 263 263 265
231 231 225 224 221 223 226 227 226 226 222 217 228 234 239 251 248 240 238 239 241 243 243 243 239 238 239 246 253 257 256 256 250 246 242 255 270 269 268 269 266 267 267
240 238 229 226 225 225 223 223 223 222 219 222 229 234 239 251 242 235 234 234 235 233 227 218 220 228 239 260 278 283 286 278 273 261 260 268 266 267 271 268 268 268 268
249 240 235 230 229 227 225 224 222 222 221 224 232 237 241 242 234 231 228 228 228 225 223 220 218 223 233 242 250 261 267 272 274 275 275 272 269 273 274 273 273 272 272
253 250 241 236 233 229 225 226 226 224 224 225 230 237 240 238 233 228 225 224 224 220 219 219 219 222 229 233 239 248 257 263 267 269 271 269 269 270 274 276 273 274 276
264 252 248 242 237 231 228 228 231 227 225 227 230 234 238 237 231 225 225 220 221 216 215 215 215 220 224 228 235 244 253 262 269 270 272 272 271 271 272 275 280 281 280
246 243 250 244 240 238 234 234 233 232 230 228 230 230 234 233 231 227 226 223 222 217 217 217 218 221 223 228 234 244 254 264 271 274 274 271 267 263 265 270 276 284 288
259 247 243 247 242 239 238 237 237 235 235 234 231 233 234 232 231 229 227 226 224 220 220 219 221 222 224 227 233 241 250 257 262 266 270 266 264 260 257 269 279 288 306
280 264 252 247 248 242 242 241 242 239 237 237 234 237 237 234 232 230 230 228 227 224 222 221 223 223 224 226 229 234 242 252 261 266 270 267 262 259 254 245 257 199 213
269 266 259 254 253 250 249 247 242 243 241 240 240 240 241 236 235 233 231 229 228 227 224 222 222 222 224 226 229 233 239 246 254 260 261 260 256 250 241 192 164 177 175
264 257 259 257 256 256 251 250 248 244 244 241 242 242 242 238 235 235 233 232 230 229 227 226 225 224 224 225 229 234 240 246 252 256 255 247 247 235 229 234 233 232 230
282 269 259 257 255 252 249 244 244 244 243 244 242 242 243 240 236 236 236 235 233 231 229 227 225 224 224 224 227 232 237 243 249 255 254 249 244 236 236 232 231 232 233
310 280 262 251 257 255 249 245 242 243 244 243 242 242 243 243 237 235 235 236 236 233 229 227 227 224 224 224 224 228 234 242 246 253 254 252 246 239 236 231 232 230 226
21 347 301 271 257 257 246 242 242 243 244 244 241 240 241 244 241 236 236 236 237 236 234 232 229 225 221 222 220 223 229 236 238 242 245 245 243 239 237 233 232 234 232
40 35 20 357 274 259 248 247 239 241 244 247 245 242 240 243 245 240 237 237 238 236 235 233 231 227 222 225 218 222 220 233 233 235 238 238 234 235 236 235 234 233 229
45 43 39 34 27 310 253 250 255 243 244 243 250 246 245 245 246 245 241 240 241 239 237 237 234 232 229 227 218 216 202 222 226 233 233 231 231 229 230 232 236 235 224
41 44 45 44 44 39 20 305 248 263 271 268 268 258 255 256 251 251 250 243 242 241 240 239 237 236 233 234 222 222 224 205 193 204 227 227 227 226 230 232 236 236 231
41 42 46 47 49 46 42 41 13 328 296 263 250 264 274 272 270 261 255 248 243 242 240 241 239 236 235 238 236 231 226 223 213 206 209 222 227 228 232 234 238 240 238
47 44 44 41 40 35 35 34 27 360 330 299 281 287 279 286 280 275 266 254 247 246 244 243 242 240 237 235 238 240 238 231 229 223 221 228 232 233 235 237 239 239 239